Location: Eastlake (historical)
(39.0077°N, 122.6678°W)
Time: 05:07:40
(UTC+00:00)

CZ-4C R/B - Pass Details

Date: 25 November 2020
Orbit: 620 x 1382 km, 63.4° (Epoch: 24 January)

Event Time Altitude Azimuth Distance (km) Brightness Sun altitude
Rises 13:28:02 0° 200° (SSW) 2,936 4.9 -18.6°
Reaches altitude 10° 13:30:13 10° 197° (SSW) 2,078 4.2 -18.2°
Maximum altitude 13:34:47 58° 118° (ESE) 847 2.5 -17.3°
Drops below altitude 10° 13:40:12 10° 40° (NE) 2,446 4.9 -16.3°
Sets 13:42:56 0° 37° (NE) 3,508 5.7 -15.8°
